• Join FlightAware (Why Join?)
  • Login
  • US Flag 
11:39PM EDT


 

Airport Tracker/Info


-or-


 

Live Flight TrackerFlight Track Log ✈ LXJ611 ✈ 19-Nov-2013 ✈ KBNA - KFTY

Flight Track Log - Related Links

Times and Time Zones

All times are in EST time to prevent confusion due to time zone crossing. See the LXJ611 flight status page for this flight to view local times or setup timezone preferences in your user account.

Time Position Orientation Groundspeed Altitude Reporting Facility
EST Latitude Longitude Course Direction KTS MPH feet Rate Location/Type
01:19AM 36.1333 -86.6833 321° Northwest 180 207 1,600  Level Nashville TRACON
01:19AM 36.1500 -86.7000 321° Northwest 193 222 2,000 1,380 Climbing Nashville TRACON
01:20AM 36.1500 -86.7833 270° West 244 281 3,300 2,220 Climbing Nashville TRACON
01:21AM 36.1414 -86.8236 255° West 226 260 5,900 3,960 Climbing Memphis Center
01:22AM 36.0967 -86.7811 142° Southeast 228 262 10,300 3,840 Climbing Memphis Center
01:23AM 36.0658 -86.6847 112° Southeast 299 344 13,700 3,720 Climbing Memphis Center
01:24AM 36.0278 -86.5694 112° Southeast 352 405 17,800 3,540 Climbing Memphis Center
01:25AM 35.9856 -86.4392 112° Southeast 398 458 20,900 2,280 Climbing Memphis Center
01:26AM 35.8992 -86.3197 132° Southeast 459 528 22,500 3,180 Climbing Memphis Center
01:27AM 35.8067 -86.2075 135° Southeast 464 534 27,300 3,060 Climbing Memphis Center
01:28AM 35.7175 -86.0925 134° Southeast 459 528 28,700 840 Climbing Memphis Center
01:29AM 35.6100 -85.9589 135° Southeast 481 554 29,000 120 Climbing Memphis Center
01:30AM 35.5139 -85.8392 135° Southeast 491 565 29,000  Level Memphis Center
01:31AM 35.4203 -85.7200 134° Southeast 489 563 29,000  Level Memphis Center
01:32AM 35.3231 -85.5983 134° Southeast 497 572 29,000  Level Memphis Center
01:33AM 35.2269 -85.4731 133° Southeast 505 581 29,000  Level Memphis Center
01:34AM 35.1269 -85.3567 136° Southeast 486 559 29,000  Level Atlanta Center
01:35AM 35.0217 -85.2461 139° Southeast 492 566 29,000  Level Atlanta Center
01:36AM 34.9056 -85.1758 154° Southeast 484 557 29,000  Level Atlanta Center
01:37AM 34.7914 -85.1086 154° Southeast 467 537 29,000  Level Atlanta Center
01:38AM 34.6731 -85.0414 155° Southeast 460 529 29,000 -9,000 Level Atlanta Center
01:39AM 34.5547 -84.9694 153° Southeast 445 512 11,000 -4,740 Descending Atlanta Center
01:40AM 34.4444 -84.9028 153° Southeast 445 512 19,600 2,160 Climbing Atlanta Center
01:41AM 34.3342 -84.8439 156° South 438 504 15,400 -2,340 Descending Atlanta Center
01:42AM 34.2408 -84.7875 153° Southeast 406 467 15,000 -600 Descending Atlanta Center
01:43AM 34.1533 -84.7367 154° Southeast 368 423 14,300 -2,100 Descending Atlanta Center
01:44AM 34.0658 -84.6883 155° Southeast 347 399 10,800 -2,520 Descending Atlanta Center
01:45AM 33.9889 -84.6425 154° Southeast 323 372 9,300 -2,040 Descending Atlanta Center
01:46AM 33.9183 -84.6019 154° Southeast 293 337 6,800 -2,580 Descending Atlanta Center
01:47AM 33.8500 -84.5833 167° South 231 266 4,400 -2,040 Descending Atlanta TRACON
01:48AM 33.8000 -84.5833 180° South 192 221 2,900 -1,260 Descending Atlanta TRACON
01:49AM 33.7667 -84.5667 157° South 124 143 1,900 2,640 Descending Atlanta TRACON
01:51AM 33.7517 -84.5286 115° Southeast 79 91 11,000 4,380 Climbing Atlanta Center